FENGYUN 1C DEB, 37028

Orbit data source: Space-Track

FENGYUN 1C DEB, 37028 is space debris in SSO originally from a launch on Mon, 10 May 1999 UTC launched from the Taiyaun Space Center, China (TSC). Fengyun 1C debris stems from the Chinese weather satellite Fengyun-1C, which was intentionally destroyed by a Chinese anti-satellite missile in 2007. This event dramatically increased the amount of space debris, with thousands of trackable fragments posing hazards to satellites and human spaceflight. The Fengyun 1C debris cloud has become a focal point in discussions about space sustainability and the need for international regulations to prevent the creation of new debris.

Loading next visibility...
Identifier
37028, 1999-025EDL
Orbit
SSO
Country
Flag of CNCN / PRC
Related business
Manufacturer
Unknown
Mission
Spacecraft
Bus & Motor
Unknown
Mass
Unknown
Launch date (UTC)
1999-05-10 (27 years ago)
Launch vehicle
Unknown
Launch site
Taiyaun Space Center, China (TSC)
Object type
Payload
Rocket body
Debris
Shape & HBR
Unknown shape, 0.1 m
Radar Cross Section
Small (<0.1 m²)

Expand to show TLE details & history
Last TLE update: 2 days ago

TLE from 2 days ago
0 FENGYUN 1C DEB
1 37028U 99025EDL 26170.49682649  .00002299  00000-0  10116-2 0  9992
2 37028  99.2443  92.7538 0031020 287.0779  72.7001 14.24292464631615
Epoch: 2026-06-19T11:55Z
TLE epoch observation values (Epoch: 2026-06-19T11:55:25.808Z)
Latitude
-0.00004°
Longitude
6.17131°
Altitude
807.205 km
Speed
7.453 km/s
True Right ascension
06h 11m 00s
True Declination
0° 00' 00"
Sunlit
Object was in daylight at epoch
Visualization orbit readout
Latitude
Unknown
Longitude
Unknown
Altitude
Unknown
Speed
Unknown
Apparent Right ascension
Unknown
Apparent Declination
Unknown
Sunlit
N/A
Visualization observer readout
Local Sidereal Time
00:12:45
Azimuth
Unknown
Elevation
Unknown
Doppler factor
Unknown
Orbital elements
Apogee altitude
830.343 km
Perigee altitude
785.76 km
Semi-major axis
7,186.189 km
Eccentricity
0.0031
Inclination
99.2443°
RAAN
92.7538°
Arg. of periapsis
287.0779°
True anomaly
73.03987°
Mean anomaly
72.7001°
Eccentric anomaly
72.86995°
Mean motion
3.56283 °/min
Orbital period
101.04 mins
BSTAR
0.0010116
Loading maneuver chart data...
Computing Atmospheric mass density...

Documentation

Showing up to 5 results
|